• Em Portugal
  • Lista de países
  • Para 7 dias
  • Temperatura da água
  • Mapas de satélite
  • Mapa do tempo
  • Widgets de tempo
  • user-avatar
    Iniciar Sessão

    Previsão horária em Batina

    Hoje, 16 Agosto, Quinta-feira

    Tempo Temperatura Precipitação Vento Pressão Humidade
    00:00 +22°C° 0 mm 3 m/s 672 mmHg 64%
    01:00 +21°C° 0 mm 2 m/s 672 mmHg 64%
    02:00 +21°C° 0 mm 2 m/s 672 mmHg 64%
    03:00 +22°C° 0 mm 1 m/s 672 mmHg 64%
    04:00 +22°C° 0 mm 1 m/s 672 mmHg 64%
    05:00 +22°C° 0 mm 1 m/s 672 mmHg 63%
    06:00 +22°C° 0 mm 1 m/s 672 mmHg 63%
    07:00 +23°C° 0 mm 1 m/s 672 mmHg 57%
    08:00 +25°C° 0 mm 1 m/s 673 mmHg 51%
    09:00 +26°C° 0 mm 2 m/s 673 mmHg 45%
    10:00 +27°C° 0 mm 2 m/s 673 mmHg 40%
    11:00 +29°C° 0 mm 3 m/s 673 mmHg 35%
    12:00 +30°C° 0 mm 4 m/s 674 mmHg 30%
    13:00 +32°C° 0 mm 4 m/s 673 mmHg 28%
    14:00 +32°C° 0 mm 5 m/s 673 mmHg 26%
    15:00 +33°C° 0 mm 5 m/s 673 mmHg 24%
    16:00 +32°C° 0 mm 5 m/s 673 mmHg 25%
    17:00 +30°C° 0 mm 5 m/s 673 mmHg 27%
    18:00 +30°C° 0 mm 5 m/s 672 mmHg 28%
    19:00 +29°C° 0 mm 4 m/s 672 mmHg 32%
    20:00 +28°C° 0 mm 3 m/s 672 mmHg 36%
    21:00 +27°C° 0 mm 2 m/s 672 mmHg 41%
    22:00 +26°C° 0 mm 2 m/s 672 mmHg 43%
    23:00 +26°C° 0 mm 2 m/s 672 mmHg 45%

    Amanhã, 17 Agosto, Sexta-feira

    Tempo Temperatura Precipitação Vento Pressão Humidade
    00:00 +25°C° 0 mm 1 m/s 672 mmHg 47%
    01:00 +25°C° 0,1 mm 1 m/s 672 mmHg 48%
    02:00 +25°C° 0,1 mm 1 m/s 672 mmHg 50%
    03:00 +24°C° 0,1 mm 1 m/s 672 mmHg 51%
    04:00 +24°C° 0,3 mm 1 m/s 672 mmHg 52%
    05:00 +24°C° 0,3 mm 1 m/s 672 mmHg 53%
    06:00 +24°C° 0,3 mm 1 m/s 672 mmHg 54%
    07:00 +25°C° 0 mm 2 m/s 673 mmHg 50%
    08:00 +26°C° 0 mm 2 m/s 673 mmHg 46%
    09:00 +27°C° 0 mm 2 m/s 674 mmHg 42%
    10:00 +29°C° 0 mm 3 m/s 674 mmHg 38%
    11:00 +30°C° 0 mm 3 m/s 674 mmHg 35%
    12:00 +32°C° 0 mm 4 m/s 674 mmHg 32%
    13:00 +30°C° 0,2 mm 4 m/s 674 mmHg 33%
    14:00 +30°C° 0,2 mm 4 m/s 674 mmHg 34%
    15:00 +30°C° 0,2 mm 3 m/s 673 mmHg 35%
    16:00 +29°C° 0,3 mm 3 m/s 673 mmHg 37%
    17:00 +29°C° 0,3 mm 3 m/s 673 mmHg 39%
    18:00 +28°C° 0,3 mm 3 m/s 673 mmHg 42%
    19:00 +27°C° 2,3 mm 3 m/s 673 mmHg 47%
    20:00 +26°C° 2,3 mm 3 m/s 673 mmHg 53%
    21:00 +25°C° 2,3 mm 2 m/s 673 mmHg 59%
    22:00 +25°C° 0,2 mm 2 m/s 673 mmHg 59%
    23:00 +24°C° 0,2 mm 2 m/s 673 mmHg 59%

    Depois de amanhã, 18 Agosto, Sábado

    Tempo Temperatura Precipitação Vento Pressão Humidade
    00:00 +24°C° 0,2 mm 1 m/s 673 mmHg 59%
    01:00 +24°C° 0 mm 1 m/s 673 mmHg 61%
    02:00 +24°C° 0 mm 1 m/s 673 mmHg 62%
    03:00 +23°C° 0 mm 1 m/s 673 mmHg 63%
    04:00 +23°C° 0 mm 1 m/s 673 mmHg 64%
    05:00 +23°C° 0 mm 1 m/s 673 mmHg 64%
    06:00 +23°C° 0 mm 1 m/s 673 mmHg 64%
    07:00 +24°C° 0,2 mm 2 m/s 674 mmHg 60%
    08:00 +25°C° 0,2 mm 2 m/s 674 mmHg 55%
    09:00 +26°C° 0,2 mm 2 m/s 674 mmHg 51%
    10:00 +27°C° 0,4 mm 2 m/s 675 mmHg 47%
    11:00 +28°C° 0,4 mm 3 m/s 675 mmHg 42%
    12:00 +29°C° 0,4 mm 3 m/s 675 mmHg 38%
    13:00 +29°C° 0 mm 3 m/s 675 mmHg 37%
    14:00 +30°C° 0 mm 3 m/s 675 mmHg 37%
    15:00 +30°C° 0 mm 4 m/s 674 mmHg 36%
    16:00 +29°C° 0 mm 4 m/s 674 mmHg 37%
    17:00 +29°C° 0 mm 4 m/s 674 mmHg 39%
    18:00 +29°C° 0 mm 4 m/s 674 mmHg 40%
    19:00 +28°C° 0 mm 3 m/s 674 mmHg 45%
    20:00 +27°C° 0 mm 3 m/s 674 mmHg 51%
    21:00 +26°C° 0 mm 3 m/s 675 mmHg 56%
    22:00 +25°C° 0,1 mm 3 m/s 674 mmHg 59%
    23:00 +24°C° 0,1 mm 3 m/s 674 mmHg 62%

    19 Agosto, Domingo

    Tempo Temperatura Precipitação Vento Pressão Humidade
    00:00 +24°C° 0,1 mm 2 m/s 674 mmHg 65%
    01:00 +24°C° 0,1 mm 2 m/s 674 mmHg 66%
    02:00 +23°C° 0,1 mm 2 m/s 674 mmHg 67%
    03:00 +23°C° 0,1 mm 1 m/s 674 mmHg 68%
    04:00 +23°C° 0,1 mm 1 m/s 674 mmHg 68%
    05:00 +23°C° 0,1 mm 1 m/s 674 mmHg 67%
    06:00 +23°C° 0,1 mm 1 m/s 674 mmHg 67%
    07:00 +24°C° 0,1 mm 1 m/s 674 mmHg 62%
    08:00 +25°C° 0,1 mm 1 m/s 675 mmHg 57%
    09:00 +26°C° 0,1 mm 2 m/s 675 mmHg 52%
    10:00 +27°C° 0,3 mm 2 m/s 675 mmHg 48%
    11:00 +28°C° 0,3 mm 3 m/s 675 mmHg 44%
    12:00 +29°C° 0,3 mm 4 m/s 675 mmHg 40%
    13:00 +29°C° 0,2 mm 4 m/s 675 mmHg 39%
    14:00 +30°C° 0,2 mm 4 m/s 675 mmHg 38%
    15:00 +30°C° 0,2 mm 3 m/s 675 mmHg 37%
    16:00 +29°C° 0,1 mm 3 m/s 674 mmHg 39%
    17:00 +29°C° 0,1 mm 3 m/s 674 mmHg 41%
    18:00 +28°C° 0,1 mm 3 m/s 674 mmHg 42%
    19:00 +27°C° 0,1 mm 3 m/s 674 mmHg 46%
    20:00 +26°C° 0,1 mm 3 m/s 674 mmHg 50%
    21:00 +25°C° 0,1 mm 3 m/s 674 mmHg 54%
    22:00 +24°C° 0,3 mm 2 m/s 674 mmHg 58%
    23:00 +24°C° 0,3 mm 2 m/s 673 mmHg 61%

    20 Agosto, Segunda-feira

    Tempo Temperatura Precipitação Vento Pressão Humidade
    00:00 +23°C° 0,3 mm 1 m/s 673 mmHg 65%
    01:00 +23°C° 0,3 mm 1 m/s 673 mmHg 65%
    02:00 +23°C° 0,3 mm 2 m/s 672 mmHg 66%
    03:00 +21°C° 0,3 mm 2 m/s 672 mmHg 66%
    04:00 +21°C° 0,1 mm 2 m/s 672 mmHg 67%
    05:00 +21°C° 0,1 mm 2 m/s 672 mmHg 67%
    06:00 +21°C° 0,1 mm 2 m/s 673 mmHg 68%
    07:00 +23°C° 0 mm 2 m/s 673 mmHg 63%
    08:00 +23°C° 0 mm 2 m/s 673 mmHg 58%
    09:00 +24°C° 0 mm 2 m/s 674 mmHg 53%
    10:00 +25°C° 0,1 mm 2 m/s 674 mmHg 47%
    11:00 +26°C° 0,1 mm 3 m/s 674 mmHg 42%
    12:00 +27°C° 0,1 mm 3 m/s 674 mmHg 36%
    13:00 +28°C° 0,1 mm 3 m/s 674 mmHg 34%
    14:00 +28°C° 0,1 mm 3 m/s 674 mmHg 31%
    15:00 +28°C° 0,1 mm 4 m/s 674 mmHg 29%
    16:00 +28°C° 0 mm 4 m/s 674 mmHg 32%
    17:00 +27°C° 0 mm 4 m/s 673 mmHg 35%
    18:00 +27°C° 0 mm 5 m/s 673 mmHg 38%
    19:00 +26°C° 0 mm 4 m/s 673 mmHg 45%
    20:00 +25°C° 0 mm 4 m/s 673 mmHg 52%
    21:00 +23°C° 0 mm 4 m/s 673 mmHg 59%
    22:00 +22°C° 0 mm 3 m/s 673 mmHg 62%
    23:00 +21°C° 0 mm 3 m/s 673 mmHg 66%

    21 Agosto, Terça-feira

    Tempo Temperatura Precipitação Vento Pressão Humidade
    00:00 +21°C° 0 mm 2 m/s 673 mmHg 69%
    01:00 +21°C° 0 mm 2 m/s 672 mmHg 70%
    02:00 +20°C° 0 mm 2 m/s 672 mmHg 70%
    03:00 +20°C° 0 mm 2 m/s 672 mmHg 71%
    04:00 +21°C° 0 mm 1 m/s 672 mmHg 70%
    05:00 +21°C° 0 mm 1 m/s 673 mmHg 69%
    06:00 +21°C° 0 mm 1 m/s 673 mmHg 69%
    07:00 +22°C° 0 mm 1 m/s 673 mmHg 62%
    08:00 +23°C° 0 mm 1 m/s 674 mmHg 55%
    09:00 +24°C° 0 mm 1 m/s 674 mmHg 47%
    10:00 +25°C° 0,1 mm 2 m/s 674 mmHg 44%
    11:00 +26°C° 0,1 mm 2 m/s 674 mmHg 40%
    12:00 +27°C° 0,1 mm 2 m/s 674 mmHg 37%
    13:00 +28°C° 0,1 mm 3 m/s 674 mmHg 35%
    14:00 +28°C° 0,1 mm 3 m/s 674 mmHg 33%
    15:00 +29°C° 0,1 mm 3 m/s 673 mmHg 31%
    16:00 +28°C° 0 mm 3 m/s 673 mmHg 31%
    17:00 +28°C° 0 mm 3 m/s 673 mmHg 31%
    18:00 +28°C° 0 mm 3 m/s 673 mmHg 32%
    19:00 +27°C° 0 mm 3 m/s 673 mmHg 36%
    20:00 +27°C° 0 mm 3 m/s 673 mmHg 40%
    21:00 +26°C° 0 mm 3 m/s 674 mmHg 44%
    22:00 +25°C° 0 mm 2 m/s 673 mmHg 46%
    23:00 +25°C° 0 mm 2 m/s 673 mmHg 49%
    Mostrar mais